Location: Flitcham
(52.8000°N, 0.5667°E)
Time: 20:56:53
(UTC+00:00)

RESURS DK-1 - Pass Details

Date: 15 May 2026
Orbit: 522 x 531 km, 69.9° (Epoch: 7 June)

Event Time Altitude Azimuth Distance (km) Brightness Sun altitude
Rises 22:12:18 0° 328° (NNW) 2,683 7.7 -14.8°
Reaches altitude 10° 22:14:31 10° 332° (NNW) 1,790 6.3 -15.0°
Maximum altitude 22:18:28 58° 53° (NE) 624 2.6 -15.2°
Enters shadow 22:20:37 25° 125° (SE) 1,108 3.4 -15.4°
